Tracking 27423 objects as of 8-Jun-2023
HD Live streaming from Space Station
objects crossing your sky now

RADCAL

Track RADCAL now!
10-day predictions
RADCAL is classified as:


NORAD ID: 22698
Int'l Code: 1993-041A
Perigee: 757.1 km
Apogee: 883.5 km
Inclination: 89.5 °
Period: 101.2 minutes
Semi major axis: 7191 km
RCS: 0.589 m2 (medium)
Launch date: June 25, 1993
Source: United States (US)
Launch site: AIR FORCE WESTERN TEST RANGE (AFWTR)

This spacecraft was used to help calibrate radar target cross section data.
Your satellite tracking list
Your tracking list is empty




NASA's NSSDC Master Catalog

Two Line Element Set (TLE):
1 22698U 93041A   23159.42167762  .00000163  00000-0  63330-4 0  9998
2 22698  89.5186 123.2692 0087892 198.4914 161.3079 14.23618351554983
Source of the keplerian elements: AFSPC